Time,TemperatureF,DewpointF,PressureIn,WindDirection,WindDirectionDegrees,WindSpeedMPH,WindSpeedGustMPH,Humidity,HourlyPrecipIn,Conditions,Clouds,dailyrainin,SolarRadiationWatts/m^2,SoftwareType,DateUTC
2013-03-29 00:00:00,37.0,30.1,30.03,NNW,338,0.0,0.0,76,0.00,,,0.00,0000,Weather View 32 v70,2013-03-29 04:00:00,
2013-03-29 00:05:00,36.9,30.3,30.03,NNW,338,0.0,0.0,77,0.00,,,0.00,0008,Weather View 32 v70,2013-03-29 04:05:00,
2013-03-29 00:06:00,36.9,30.3,30.03,NNW,338,0.0,0.0,77,0.00,,,0.00,0008,Weather View 32 v70,2013-03-29 04:06:00,
2013-03-29 00:10:00,36.9,30.3,30.03,NNW,338,0.0,0.0,77,0.00,,,0.00,0000,Weather View 32 v70,2013-03-29 04:10:00,
2013-03-29 00:15:00,36.8,30.2,30.03,NNW,338,0.0,0.0,77,0.00,,,0.00,0000,Weather View 32 v70,2013-03-29 04:15:00,
2013-03-29 00:25:00,36.8,30.5,30.02,NW,315,0.0,0.0,78,0.00,,,0.00,0000,Weather View 32 v70,2013-03-29 04:25:00,
2013-03-29 00:30:00,36.9,30.6,30.02,NNW,338,0.0,0.0,78,0.00,,,0.00,0000,Weather View 32 v70,2013-03-29 04:30:00,
2013-03-29 00:40:00,36.9,30.6,30.03,NNW,338,0.0,0.0,78,0.00,,,0.00,0000,Weather View 32 v70,2013-03-29 04:40:00,
2013-03-29 00:50:00,36.9,30.3,30.03,NNW,338,0.0,0.0,77,0.00,,,0.00,0000,Weather View 32 v70,2013-03-29 04:50:00,
2013-03-29 00:55:00,36.8,30.5,30.03,NNW,338,0.0,0.0,78,0.00,,,0.00,0000,Weather View 32 v70,2013-03-29 04:55:00,
2013-03-29 01:00:00,36.6,30.4,30.03,NNW,338,0.0,0.0,78,0.00,,,0.00,0000,Weather View 32 v70,2013-03-29 05:00:00,
2013-03-29 01:05:00,36.6,30.4,30.03,NNW,338,0.0,0.0,78,0.00,,,0.00,0000,Weather View 32 v70,2013-03-29 05:05:00,
2013-03-29 01:15:00,36.6,30.4,30.03,NNW,338,0.0,0.0,78,0.00,,,0.00,0000,Weather View 32 v70,2013-03-29 05:15:00,
2013-03-29 01:25:00,36.8,30.5,30.03,NNW,338,0.0,0.0,78,0.00,,,0.00,0000,Weather View 32 v70,2013-03-29 05:25:00,
2013-03-29 01:30:00,36.6,30.4,30.03,NNW,338,0.0,0.0,78,0.00,,,0.00,0000,Weather View 32 v70,2013-03-29 05:30:00,
2013-03-29 01:40:00,36.6,30.4,30.03,NNW,338,0.0,0.0,78,0.00,,,0.00,0000,Weather View 32 v70,2013-03-29 05:40:00,
2013-03-29 01:50:00,36.6,30.4,30.03,NNW,338,0.0,0.0,78,0.00,,,0.00,0000,Weather View 32 v70,2013-03-29 05:50:00,
2013-03-29 01:55:00,36.6,30.4,30.03,NW,315,0.0,0.0,78,0.00,,,0.00,0000,Weather View 32 v70,2013-03-29 05:55:00,
2013-03-29 02:05:00,36.5,30.3,30.03,North,0,0.0,0.0,78,0.00,,,0.00,0000,Weather View 32 v70,2013-03-29 06:05:00,
2013-03-29 02:15:00,36.5,30.6,30.03,NW,315,0.0,0.0,79,0.00,,,0.00,0000,Weather View 32 v70,2013-03-29 06:15:00,
2013-03-29 02:20:00,36.5,30.6,30.03,NW,315,0.0,0.0,79,0.00,,,0.00,0008,Weather View 32 v70,2013-03-29 06:20:00,
2013-03-29 02:30:00,36.6,30.7,30.03,North,0,0.0,0.0,79,0.00,,,0.00,0008,Weather View 32 v70,2013-03-29 06:30:00,
2013-03-29 02:40:00,36.6,30.7,30.03,North,0,0.0,0.0,79,0.00,,,0.00,0000,Weather View 32 v70,2013-03-29 06:40:00,
2013-03-29 02:50:00,36.6,30.7,30.03,WNW,293,0.0,0.0,79,0.00,,,0.00,0000,Weather View 32 v70,2013-03-29 06:50:00,
2013-03-29 03:00:00,36.6,30.4,30.03,NNW,338,0.0,0.0,78,0.00,,,0.00,0000,Weather View 32 v70,2013-03-29 07:00:00,
2013-03-29 03:07:00,36.5,30.3,30.03,NW,315,0.0,0.0,78,0.00,,,0.00,0000,Weather View 32 v70,2013-03-29 07:07:00,
2013-03-29 03:15:00,36.3,30.1,30.03,NNW,338,0.0,1.0,78,0.00,,,0.00,0000,Weather View 32 v70,2013-03-29 07:15:00,
2013-03-29 03:20:00,36.1,29.9,30.03,NNW,338,0.0,1.0,78,0.00,,,0.00,0008,Weather View 32 v70,2013-03-29 07:20:00,
2013-03-29 03:25:00,35.7,29.5,30.03,NNW,338,0.0,1.0,78,0.00,,,0.00,0000,Weather View 32 v70,2013-03-29 07:25:00,
2013-03-29 03:35:00,35.4,29.5,30.03,NW,315,0.0,1.0,79,0.00,,,0.00,0008,Weather View 32 v70,2013-03-29 07:35:00,
2013-03-29 03:45:00,35.0,29.1,30.03,NW,315,0.0,1.0,79,0.00,,,0.00,0000,Weather View 32 v70,2013-03-29 07:45:00,
2013-03-29 03:55:00,34.6,29.1,30.03,NNW,338,0.0,1.0,80,0.00,,,0.00,0000,Weather View 32 v70,2013-03-29 07:55:00,
2013-03-29 04:05:00,34.4,28.9,30.03,NNW,338,0.0,1.0,80,0.00,,,0.00,0008,Weather View 32 v70,2013-03-29 08:05:00,
2013-03-29 04:15:00,34.1,28.5,30.03,NNW,338,0.0,1.0,80,0.00,,,0.00,0008,Weather View 32 v70,2013-03-29 08:15:00,
2013-03-29 04:25:00,33.9,28.7,30.03,NNW,338,0.0,0.0,81,0.00,,,0.00,0000,Weather View 32 v70,2013-03-29 08:25:00,
2013-03-29 04:35:00,33.9,28.7,30.03,NNW,338,0.0,0.0,81,0.00,,,0.00,0000,Weather View 32 v70,2013-03-29 08:35:00,
2013-03-29 04:40:00,33.9,28.7,30.03,NNW,338,0.0,0.0,81,0.00,,,0.00,0000,Weather View 32 v70,2013-03-29 08:40:00,
2013-03-29 04:45:00,33.9,28.7,30.03,NNW,338,0.0,0.0,81,0.00,,,0.00,0000,Weather View 32 v70,2013-03-29 08:45:00,
2013-03-29 04:55:00,33.8,28.9,30.03,NW,315,0.0,0.0,82,0.00,,,0.00,0000,Weather View 32 v70,2013-03-29 08:55:00,
2013-03-29 05:05:00,33.7,28.5,30.03,North,0,0.0,0.0,81,0.00,,,0.00,0000,Weather View 32 v70,2013-03-29 09:05:00,
2013-03-29 05:15:00,33.5,28.6,30.03,NNW,338,0.0,1.0,82,0.00,,,0.00,0008,Weather View 32 v70,2013-03-29 09:15:00,
2013-03-29 05:25:00,33.5,28.6,30.03,NNW,338,0.0,1.0,82,0.00,,,0.00,0008,Weather View 32 v70,2013-03-29 09:25:00,
2013-03-29 05:30:00,33.6,28.7,30.03,NW,315,0.0,1.0,82,0.00,,,0.00,0008,Weather View 32 v70,2013-03-29 09:30:00,
2013-03-29 05:40:00,33.4,28.5,30.03,NNW,338,0.0,1.0,82,0.00,,,0.00,0000,Weather View 32 v70,2013-03-29 09:40:00,
2013-03-29 05:45:00,33.3,28.4,30.03,NNW,338,0.0,1.0,82,0.00,,,0.00,0000,Weather View 32 v70,2013-03-29 09:45:00,
2013-03-29 05:55:00,33.0,28.1,30.03,NNW,338,0.0,1.0,82,0.00,,,0.00,0000,Weather View 32 v70,2013-03-29 09:55:00,
2013-03-29 06:05:00,33.0,28.4,30.03,NW,315,0.0,1.0,83,0.00,,,0.00,0000,Weather View 32 v70,2013-03-29 10:05:00,
2013-03-29 06:15:00,32.9,28.3,30.03,NNW,338,0.0,1.0,83,0.00,,,0.00,0008,Weather View 32 v70,2013-03-29 10:15:00,
2013-03-29 06:20:00,32.9,28.3,30.03,NNW,338,0.0,1.0,83,0.00,,,0.00,0008,Weather View 32 v70,2013-03-29 10:20:00,
2013-03-29 06:30:00,32.7,28.1,30.04,North,0,0.0,1.0,83,0.00,,,0.00,0008,Weather View 32 v70,2013-03-29 10:30:00,
2013-03-29 06:35:00,32.7,28.1,30.04,NNW,338,0.0,1.0,83,0.00,,,0.00,0000,Weather View 32 v70,2013-03-29 10:35:00,
2013-03-29 06:40:00,32.6,28.0,30.04,NNW,338,0.0,1.0,83,0.00,,,0.00,0008,Weather View 32 v70,2013-03-29 10:40:00,
2013-03-29 06:45:00,32.5,27.9,30.04,NNW,338,0.0,1.0,83,0.00,,,0.00,0000,Weather View 32 v70,2013-03-29 10:45:00,
2013-03-29 06:50:00,32.4,27.8,30.05,NNW,338,0.0,1.0,83,0.00,,,0.00,0008,Weather View 32 v70,2013-03-29 10:50:00,
2013-03-29 06:55:00,32.4,27.8,30.04,NNW,338,0.0,1.0,83,0.00,,,0.00,0016,Weather View 32 v70,2013-03-29 10:55:00,
2013-03-29 07:05:00,32.7,28.4,30.05,WNW,293,0.0,1.0,84,0.00,,,0.00,0048,Weather View 32 v70,2013-03-29 11:05:00,
2013-03-29 07:10:00,32.8,28.5,30.05,WNW,293,0.0,1.0,84,0.00,,,0.00,0064,Weather View 32 v70,2013-03-29 11:10:00,
2013-03-29 07:15:00,32.8,28.5,30.05,WNW,293,0.0,1.0,84,0.00,,,0.00,0088,Weather View 32 v70,2013-03-29 11:15:00,
2013-03-29 07:20:00,32.8,28.2,30.05,NW,315,0.0,1.0,83,0.00,,,0.00,0104,Weather View 32 v70,2013-03-29 11:20:00,
2013-03-29 07:30:00,33.4,28.8,30.05,NW,315,0.0,1.0,83,0.00,,,0.00,0128,Weather View 32 v70,2013-03-29 11:30:00,
2013-03-29 07:35:00,33.7,29.1,30.05,NW,315,0.0,1.0,83,0.00,,,0.00,0112,Weather View 32 v70,2013-03-29 11:35:00,
2013-03-29 07:45:00,34.5,29.9,30.05,NNW,338,0.0,0.0,83,0.00,,,0.00,0136,Weather View 32 v70,2013-03-29 11:45:00,
2013-03-29 07:50:00,35.2,30.2,30.05,WNW,293,0.0,0.0,82,0.00,,,0.00,0176,Weather View 32 v70,2013-03-29 11:50:00,
2013-03-29 08:00:00,36.8,31.5,30.05,NW,315,0.0,4.0,81,0.00,,,0.00,0176,Weather View 32 v70,2013-03-29 12:00:00,
2013-03-29 08:05:00,37.5,31.9,30.05,WNW,293,0.0,4.0,80,0.00,,,0.00,0200,Weather View 32 v70,2013-03-29 12:05:00,
2013-03-29 08:10:00,38.3,32.1,30.05,NW,315,0.0,4.0,78,0.00,,,0.00,0208,Weather View 32 v70,2013-03-29 12:10:00,
2013-03-29 08:20:00,39.9,31.9,30.05,NW,315,0.0,4.0,73,0.00,,,0.00,0256,Weather View 32 v70,2013-03-29 12:20:00,
2013-03-29 08:30:00,41.4,32.0,30.06,WNW,293,4.0,5.0,69,0.00,,,0.00,0280,Weather View 32 v70,2013-03-29 12:30:00,
2013-03-29 08:35:00,41.9,32.5,30.06,NW,315,0.0,5.0,69,0.00,,,0.00,0296,Weather View 32 v70,2013-03-29 12:35:00,
2013-03-29 08:40:00,42.7,31.8,30.06,NW,315,0.0,5.0,65,0.00,,,0.00,0296,Weather View 32 v70,2013-03-29 12:40:00,
2013-03-29 08:50:00,44.7,32.9,30.06,West,270,2.0,5.0,63,0.00,,,0.00,0320,Weather View 32 v70,2013-03-29 12:50:00,
2013-03-29 09:00:00,46.1,33.0,30.06,North,0,0.0,5.0,60,0.00,,,0.00,0344,Weather View 32 v70,2013-03-29 13:00:00,
2013-03-29 09:05:00,46.8,32.8,30.05,NW,315,0.0,5.0,58,0.00,,,0.00,0392,Weather View 32 v70,2013-03-29 13:05:00,
2013-03-29 09:11:00,47.1,32.2,30.06,North,0,2.0,6.0,56,0.00,,,0.00,0392,Weather View 32 v70,2013-03-29 13:11:00,
2013-03-29 09:20:00,47.7,31.8,30.05,North,0,3.0,9.0,54,0.00,,,0.00,0424,Weather View 32 v70,2013-03-29 13:20:00,
2013-03-29 09:25:00,48.5,31.6,30.05,NNW,338,0.0,9.0,52,0.00,,,0.00,0424,Weather View 32 v70,2013-03-29 13:25:00,
2013-03-29 09:30:00,48.6,30.7,30.05,NW,315,1.0,9.0,50,0.00,,,0.00,0456,Weather View 32 v70,2013-03-29 13:30:00,
2013-03-29 09:35:00,49.2,30.9,30.05,NW,315,1.0,9.0,49,0.00,,,0.00,0440,Weather View 32 v70,2013-03-29 13:35:00,
2013-03-29 09:45:00,50.1,31.7,30.05,NW,315,3.0,9.0,49,0.00,,,0.00,0488,Weather View 32 v70,2013-03-29 13:45:00,
2013-03-29 09:50:00,51.2,31.6,30.05,WNW,293,0.0,9.0,47,0.00,,,0.00,0472,Weather View 32 v70,2013-03-29 13:50:00,
2013-03-29 10:00:00,51.0,30.4,30.05,WSW,248,2.0,9.0,45,0.00,,,0.00,0512,Weather View 32 v70,2013-03-29 14:00:00,
2013-03-29 10:05:00,51.6,30.9,30.05,West,270,0.0,9.0,45,0.00,,,0.00,0512,Weather View 32 v70,2013-03-29 14:05:00,
2013-03-29 10:11:00,52.1,30.8,30.05,NW,315,0.0,9.0,44,0.00,,,0.00,0528,Weather View 32 v70,2013-03-29 14:11:00,
2013-03-29 10:20:00,52.5,30.6,30.05,WSW,248,3.0,10.0,43,0.00,,,0.00,0528,Weather View 32 v70,2013-03-29 14:20:00,
2013-03-29 10:30:00,52.8,30.9,30.05,NNW,338,0.0,10.0,43,0.00,,,0.00,0568,Weather View 32 v70,2013-03-29 14:30:00,
2013-03-29 10:35:00,53.3,29.5,30.05,NNW,338,0.0,10.0,40,0.00,,,0.00,0584,Weather View 32 v70,2013-03-29 14:35:00,
2013-03-29 10:40:00,53.6,29.8,30.05,WNW,293,0.0,10.0,40,0.00,,,0.00,0600,Weather View 32 v70,2013-03-29 14:40:00,
2013-03-29 10:50:00,53.7,29.9,30.05,NW,315,0.0,10.0,40,0.00,,,0.00,0608,Weather View 32 v70,2013-03-29 14:50:00,
2013-03-29 10:55:00,54.9,29.7,30.04,West,270,0.0,10.0,38,0.00,,,0.00,0624,Weather View 32 v70,2013-03-29 14:55:00,
2013-03-29 11:05:00,55.2,28.7,30.04,NW,315,0.0,10.0,36,0.00,,,0.00,0624,Weather View 32 v70,2013-03-29 15:05:00,
2013-03-29 11:10:00,55.9,29.3,30.04,NW,315,3.0,10.0,36,0.00,,,0.00,0664,Weather View 32 v70,2013-03-29 15:10:00,
2013-03-29 11:15:00,55.5,28.3,30.05,NNW,338,5.0,10.0,35,0.00,,,0.00,0648,Weather View 32 v70,2013-03-29 15:15:00,
2013-03-29 11:20:00,55.7,28.4,30.04,WNW,293,0.0,10.0,35,0.00,,,0.00,0648,Weather View 32 v70,2013-03-29 15:20:00,
2013-03-29 11:25:00,56.9,28.8,30.04,North,0,0.0,8.0,34,0.00,,,0.00,0656,Weather View 32 v70,2013-03-29 15:25:00,
2013-03-29 11:30:00,56.7,27.8,30.04,WNW,293,0.0,14.0,33,0.00,,,0.00,0656,Weather View 32 v70,2013-03-29 15:30:00,
2013-03-29 11:40:00,56.2,27.4,30.04,North,0,0.0,14.0,33,0.00,,,0.00,0752,Weather View 32 v70,2013-03-29 15:40:00,
2013-03-29 11:45:00,56.6,26.2,30.03,NNW,338,0.0,14.0,31,0.00,,,0.00,0752,Weather View 32 v70,2013-03-29 15:45:00,
2013-03-29 11:55:00,57.8,26.5,30.03,WNW,293,0.0,14.0,30,0.00,,,0.00,0760,Weather View 32 v70,2013-03-29 15:55:00,
2013-03-29 12:00:00,57.5,24.5,30.03,North,0,4.0,14.0,28,0.00,,,0.00,0808,Weather View 32 v70,2013-03-29 16:00:00,
2013-03-29 12:10:00,57.6,23.8,30.03,WNW,293,3.0,14.0,27,0.00,,,0.00,0816,Weather View 32 v70,2013-03-29 16:10:00,
2013-03-29 12:20:00,57.3,23.6,30.03,NW,315,2.0,14.0,27,0.00,,,0.00,0144,Weather View 32 v70,2013-03-29 16:20:00,
2013-03-29 12:30:00,54.9,24.0,30.02,SW,225,0.0,12.0,30,0.00,,,0.00,0160,Weather View 32 v70,2013-03-29 16:30:00,
2013-03-29 12:40:00,56.8,23.1,30.01,WNW,293,2.0,12.0,27,0.00,,,0.00,0296,Weather View 32 v70,2013-03-29 16:40:00,
2013-03-29 12:45:00,56.8,24.0,30.02,SW,225,3.0,12.0,28,0.00,,,0.00,0856,Weather View 32 v70,2013-03-29 16:45:00,
2013-03-29 12:50:00,55.8,23.9,30.02,SSW,203,2.0,12.0,29,0.00,,,0.00,0184,Weather View 32 v70,2013-03-29 16:50:00,
2013-03-29 13:00:00,57.6,24.6,30.01,SSW,203,3.0,12.0,28,0.00,,,0.00,0824,Weather View 32 v70,2013-03-29 17:00:00,
2013-03-29 13:05:00,57.6,22.9,30.01,NNE,23,0.0,10.0,26,0.00,,,0.00,0136,Weather View 32 v70,2013-03-29 17:05:00,
2013-03-29 13:10:00,56.0,23.3,30.01,WSW,248,0.0,10.0,28,0.00,,,0.00,0136,Weather View 32 v70,2013-03-29 17:10:00,
2013-03-29 13:15:00,55.2,23.4,30.01,West,270,5.0,10.0,29,0.00,,,0.00,0160,Weather View 32 v70,2013-03-29 17:15:00,
2013-03-29 13:25:00,54.8,23.9,30.01,West,270,2.0,10.0,30,0.00,,,0.00,0176,Weather View 32 v70,2013-03-29 17:25:00,
2013-03-29 13:30:00,54.9,24.0,30.00,WNW,293,0.0,10.0,30,0.00,,,0.00,0688,Weather View 32 v70,2013-03-29 17:30:00,
2013-03-29 13:35:00,56.4,24.5,30.00,West,270,3.0,10.0,29,0.00,,,0.00,0672,Weather View 32 v70,2013-03-29 17:35:00,
2013-03-29 13:45:00,58.8,23.0,30.00,WSW,248,4.0,10.0,25,0.00,,,0.00,0816,Weather View 32 v70,2013-03-29 17:45:00,
2013-03-29 13:55:00,57.9,22.2,29.99,WSW,248,4.0,10.0,25,0.00,,,0.00,0160,Weather View 32 v70,2013-03-29 17:55:00,
2013-03-29 14:00:00,56.6,22.0,29.99,NW,315,0.0,10.0,26,0.00,,,0.00,0776,Weather View 32 v70,2013-03-29 18:00:00,
2013-03-29 14:10:00,58.8,23.0,29.99,WNW,293,8.0,12.0,25,0.00,,,0.00,0752,Weather View 32 v70,2013-03-29 18:10:00,
2013-03-29 14:15:00,58.8,23.0,29.98,WNW,293,6.0,12.0,25,0.00,,,0.00,0736,Weather View 32 v70,2013-03-29 18:15:00,
2013-03-29 14:20:00,59.5,23.6,29.98,SW,225,7.0,12.0,25,0.00,,,0.00,0736,Weather View 32 v70,2013-03-29 18:20:00,
2013-03-29 14:30:00,60.2,22.1,29.98,SW,225,3.0,19.0,23,0.00,,,0.00,0696,Weather View 32 v70,2013-03-29 18:30:00,
2013-03-29 14:40:00,59.1,26.8,29.98,SSW,203,3.0,19.0,29,0.00,,,0.00,0696,Weather View 32 v70,2013-03-29 18:40:00,
2013-03-29 14:50:00,59.3,26.9,29.97,South,180,0.0,19.0,29,0.00,,,0.00,0704,Weather View 32 v70,2013-03-29 18:50:00,
2013-03-29 14:55:00,59.5,28.0,29.97,WSW,248,7.0,19.0,30,0.00,,,0.00,0688,Weather View 32 v70,2013-03-29 18:55:00,
2013-03-29 15:00:00,59.0,26.7,29.97,SSW,203,6.0,19.0,29,0.00,,,0.00,0632,Weather View 32 v70,2013-03-29 19:00:00,
2013-03-29 15:10:00,58.9,26.7,29.97,NW,315,6.0,19.0,29,0.00,,,0.00,0200,Weather View 32 v70,2013-03-29 19:10:00,
2013-03-29 15:15:00,58.6,27.2,29.97,WSW,248,0.0,19.0,30,0.00,,,0.00,0680,Weather View 32 v70,2013-03-29 19:15:00,
2013-03-29 15:20:00,58.8,28.2,29.97,SW,225,0.0,19.0,31,0.00,,,0.00,0624,Weather View 32 v70,2013-03-29 19:20:00,
2013-03-29 15:25:00,58.4,27.0,29.97,WSW,248,3.0,17.0,30,0.00,,,0.00,0616,Weather View 32 v70,2013-03-29 19:25:00,
2013-03-29 15:30:00,58.2,26.9,29.97,WSW,248,5.0,17.0,30,0.00,,,0.00,0600,Weather View 32 v70,2013-03-29 19:30:00,
2013-03-29 15:35:00,58.6,27.2,29.97,SSE,158,2.0,17.0,30,0.00,,,0.00,0584,Weather View 32 v70,2013-03-29 19:35:00,
2013-03-29 15:40:00,59.1,27.7,29.97,SW,225,5.0,17.0,30,0.00,,,0.00,0560,Weather View 32 v70,2013-03-29 19:40:00,
2013-03-29 15:50:00,59.3,26.9,29.97,SW,225,0.0,17.0,29,0.00,,,0.00,0488,Weather View 32 v70,2013-03-29 19:50:00,
2013-03-29 16:00:00,58.2,26.1,29.97,WSW,248,5.0,17.0,29,0.00,,,0.00,0472,Weather View 32 v70,2013-03-29 20:00:00,
2013-03-29 16:10:00,56.0,24.9,29.97,WSW,248,8.0,40.0,30,0.00,,,0.00,0064,Weather View 32 v70,2013-03-29 20:10:00,
2013-03-29 16:15:00,54.4,24.4,29.97,SW,225,3.0,40.0,31,0.00,,,0.00,0128,Weather View 32 v70,2013-03-29 20:15:00,
2013-03-29 16:25:00,54.8,25.4,29.97,SW,225,4.0,40.0,32,0.00,,,0.00,0096,Weather View 32 v70,2013-03-29 20:25:00,
2013-03-29 16:30:00,54.2,25.7,29.97,WSW,248,2.0,40.0,33,0.00,,,0.00,0096,Weather View 32 v70,2013-03-29 20:30:00,
2013-03-29 16:40:00,53.4,25.0,29.97,WSW,248,1.0,40.0,33,0.00,,,0.00,0064,Weather View 32 v70,2013-03-29 20:40:00,
2013-03-29 16:45:00,53.3,24.9,29.97,SW,225,3.0,40.0,33,0.00,,,0.00,0072,Weather View 32 v70,2013-03-29 20:45:00,
2013-03-29 16:50:00,53.0,25.3,29.97,West,270,1.0,40.0,34,0.00,,,0.00,0200,Weather View 32 v70,2013-03-29 20:50:00,
2013-03-29 16:55:00,53.6,25.2,29.97,WSW,248,4.0,40.0,33,0.00,,,0.00,0344,Weather View 32 v70,2013-03-29 20:55:00,
2013-03-29 17:05:00,54.2,26.4,29.97,WSW,248,3.0,34.0,34,0.00,,,0.00,0384,Weather View 32 v70,2013-03-29 21:05:00,
2013-03-29 17:10:00,54.4,25.9,29.97,West,270,2.0,34.0,33,0.00,,,0.00,0352,Weather View 32 v70,2013-03-29 21:10:00,
2013-03-29 17:15:00,54.4,25.1,29.97,WSW,248,7.0,34.0,32,0.00,,,0.00,0360,Weather View 32 v70,2013-03-29 21:15:00,
2013-03-29 17:25:00,54.4,25.1,29.97,SW,225,3.0,34.0,32,0.00,,,0.00,0304,Weather View 32 v70,2013-03-29 21:25:00,
2013-03-29 17:35:00,53.5,25.1,29.97,West,270,2.0,34.0,33,0.00,,,0.00,0064,Weather View 32 v70,2013-03-29 21:35:00,
2013-03-29 17:40:00,53.0,25.3,29.97,NW,315,0.0,34.0,34,0.00,,,0.00,0144,Weather View 32 v70,2013-03-29 21:40:00,
2013-03-29 17:45:00,52.7,25.1,29.97,West,270,0.0,34.0,34,0.00,,,0.00,0152,Weather View 32 v70,2013-03-29 21:45:00,
2013-03-29 17:50:00,52.6,25.0,29.97,WSW,248,4.0,34.0,34,0.00,,,0.00,0136,Weather View 32 v70,2013-03-29 21:50:00,
2013-03-29 17:55:00,52.4,25.5,29.97,West,270,1.0,34.0,35,0.00,,,0.00,0120,Weather View 32 v70,2013-03-29 21:55:00,
2013-03-29 18:05:00,52.1,25.2,29.97,WSW,248,1.0,13.0,35,0.00,,,0.00,0128,Weather View 32 v70,2013-03-29 22:05:00,
2013-03-29 18:15:00,51.5,25.4,29.98,SSW,203,3.0,13.0,36,0.00,,,0.00,0056,Weather View 32 v70,2013-03-29 22:15:00,
2013-03-29 18:20:00,51.2,25.1,29.98,West,270,3.0,13.0,36,0.00,,,0.00,0008,Weather View 32 v70,2013-03-29 22:20:00,
2013-03-29 18:25:00,50.8,25.4,29.98,SW,225,2.0,13.0,37,0.00,,,0.00,0000,Weather View 32 v70,2013-03-29 22:25:00,
2013-03-29 18:30:00,50.5,25.8,29.98,West,270,2.0,11.0,38,0.00,,,0.00,0008,Weather View 32 v70,2013-03-29 22:30:00,
2013-03-29 18:40:00,49.8,25.2,29.98,WSW,248,0.0,11.0,38,0.00,,,0.00,0024,Weather View 32 v70,2013-03-29 22:40:00,
2013-03-29 18:50:00,49.2,25.9,29.98,WSW,248,0.0,9.0,40,0.00,,,0.00,0008,Weather View 32 v70,2013-03-29 22:50:00,
2013-03-29 19:00:00,48.7,25.4,29.98,WNW,293,0.0,8.0,40,0.00,,,0.00,0016,Weather View 32 v70,2013-03-29 23:00:00,
2013-03-29 19:05:00,48.7,25.4,29.99,WSW,248,0.0,8.0,40,0.00,,,0.00,0000,Weather View 32 v70,2013-03-29 23:05:00,
2013-03-29 19:15:00,48.3,26.3,29.99,SW,225,0.0,7.0,42,0.00,,,0.00,0000,Weather View 32 v70,2013-03-29 23:15:00,
2013-03-29 19:20:00,48.1,25.5,29.99,WNW,293,0.0,7.0,41,0.00,,,0.00,0000,Weather View 32 v70,2013-03-29 23:20:00,
2013-03-29 19:25:00,47.7,25.1,29.99,WNW,293,0.0,7.0,41,0.00,,,0.00,0000,Weather View 32 v70,2013-03-29 23:25:00,
2013-03-29 19:30:00,47.2,25.8,29.99,SW,225,0.0,5.0,43,0.00,,,0.00,0000,Weather View 32 v70,2013-03-29 23:30:00,
2013-03-29 19:40:00,46.3,26.1,29.99,West,270,0.0,5.0,45,0.00,,,0.00,0008,Weather View 32 v70,2013-03-29 23:40:00,
2013-03-29 19:45:00,45.9,26.7,29.99,West,270,0.0,5.0,47,0.00,,,0.00,0000,Weather View 32 v70,2013-03-29 23:45:00,
2013-03-29 19:55:00,45.0,26.4,30.00,WNW,293,0.0,5.0,48,0.00,,,0.00,0008,Weather View 32 v70,2013-03-29 23:55:00,
2013-03-29 20:00:00,44.6,26.6,30.00,NW,315,0.0,5.0,49,0.00,,,0.00,0000,Weather View 32 v70,2013-03-30 00:00:00,
2013-03-29 20:10:00,44.1,26.1,30.00,North,0,0.0,0.0,49,0.00,,,0.00,0000,Weather View 32 v70,2013-03-30 00:10:00,
2013-03-29 20:17:00,43.6,25.7,30.00,North,0,0.0,0.0,49,0.00,,,0.00,0000,Weather View 32 v70,2013-03-30 00:17:00,
2013-03-29 20:25:00,43.2,25.8,30.01,North,0,0.0,0.0,50,0.00,,,0.00,0000,Weather View 32 v70,2013-03-30 00:25:00,
2013-03-29 20:30:00,42.9,26.0,30.01,North,0,0.0,0.0,51,0.00,,,0.00,0000,Weather View 32 v70,2013-03-30 00:30:00,
2013-03-29 20:40:00,42.5,25.6,30.01,NW,315,0.0,0.0,51,0.00,,,0.00,0000,Weather View 32 v70,2013-03-30 00:40:00,
2013-03-29 20:50:00,42.0,25.7,30.02,NNW,338,0.0,0.0,52,0.00,,,0.00,0016,Weather View 32 v70,2013-03-30 00:50:00,
2013-03-29 21:00:00,41.8,25.0,30.02,NNW,338,0.0,0.0,51,0.00,,,0.00,0000,Weather View 32 v70,2013-03-30 01:00:00,
2013-03-29 21:05:00,41.5,25.1,30.02,WNW,293,0.0,0.0,52,0.00,,,0.00,0000,Weather View 32 v70,2013-03-30 01:05:00,
2013-03-29 21:15:00,41.3,25.4,30.03,NNW,338,0.0,0.0,53,0.00,,,0.00,0000,Weather View 32 v70,2013-03-30 01:15:00,
2013-03-29 21:20:00,41.4,25.0,30.03,WNW,293,0.0,0.0,52,0.00,,,0.00,0000,Weather View 32 v70,2013-03-30 01:20:00,
2013-03-29 21:25:00,41.5,25.1,30.03,NNW,338,0.0,2.0,52,0.00,,,0.00,0000,Weather View 32 v70,2013-03-30 01:25:00,
2013-03-29 21:35:00,41.8,25.5,30.03,NW,315,0.0,5.0,52,0.00,,,0.00,0000,Weather View 32 v70,2013-03-30 01:35:00,
2013-03-29 21:40:00,42.5,25.1,30.03,NW,315,0.0,5.0,50,0.00,,,0.00,0000,Weather View 32 v70,2013-03-30 01:40:00,
2013-03-29 21:45:00,42.4,25.5,30.03,NW,315,0.0,5.0,51,0.00,,,0.00,0016,Weather View 32 v70,2013-03-30 01:45:00,
2013-03-29 21:55:00,41.8,25.5,30.04,NNW,338,0.0,5.0,52,0.00,,,0.00,0000,Weather View 32 v70,2013-03-30 01:55:00,
2013-03-29 22:00:00,41.6,25.2,30.04,NNW,338,0.0,5.0,52,0.00,,,0.00,0000,Weather View 32 v70,2013-03-30 02:00:00,
2013-03-29 22:05:00,41.5,25.6,30.04,NNW,338,0.0,5.0,53,0.00,,,0.00,0000,Weather View 32 v70,2013-03-30 02:05:00,
2013-03-29 22:10:00,41.5,25.1,30.04,NNW,338,0.0,5.0,52,0.00,,,0.00,0000,Weather View 32 v70,2013-03-30 02:10:00,
2013-03-29 22:15:00,41.5,24.7,30.04,NW,315,0.0,5.0,51,0.00,,,0.00,0000,Weather View 32 v70,2013-03-30 02:15:00,
2013-03-29 22:25:00,41.6,26.2,30.04,North,0,0.0,5.0,54,0.00,,,0.00,0000,Weather View 32 v70,2013-03-30 02:25:00,
2013-03-29 22:35:00,41.7,25.8,30.04,NNW,338,0.0,4.0,53,0.00,,,0.00,0000,Weather View 32 v70,2013-03-30 02:35:00,
2013-03-29 22:40:00,41.8,26.4,30.05,NNW,338,0.0,2.0,54,0.00,,,0.00,0000,Weather View 32 v70,2013-03-30 02:40:00,
2013-03-29 22:45:00,42.2,25.8,30.04,NW,315,0.0,3.0,52,0.00,,,0.00,0000,Weather View 32 v70,2013-03-30 02:45:00,
2013-03-29 22:50:00,42.2,26.2,30.04,NW,315,0.0,3.0,53,0.00,,,0.00,0000,Weather View 32 v70,2013-03-30 02:50:00,
2013-03-29 22:55:00,42.5,25.6,30.04,North,0,0.0,5.0,51,0.00,,,0.00,0008,Weather View 32 v70,2013-03-30 02:55:00,
2013-03-29 23:05:00,42.3,25.9,30.04,North,0,0.0,5.0,52,0.00,,,0.00,0000,Weather View 32 v70,2013-03-30 03:05:00,
2013-03-29 23:15:00,42.2,26.2,30.04,NNW,338,0.0,5.0,53,0.00,,,0.00,0000,Weather View 32 v70,2013-03-30 03:15:00,
2013-03-29 23:20:00,42.3,24.9,30.04,NNW,338,0.0,5.0,50,0.00,,,0.00,0000,Weather View 32 v70,2013-03-30 03:20:00,
2013-03-29 23:25:00,42.7,26.3,30.04,North,0,0.0,5.0,52,0.00,,,0.00,0008,Weather View 32 v70,2013-03-30 03:25:00,
2013-03-29 23:30:00,42.7,26.3,30.04,North,0,0.0,5.0,52,0.00,,,0.00,0000,Weather View 32 v70,2013-03-30 03:30:00,
2013-03-29 23:40:00,42.5,26.1,30.04,NNW,338,0.0,5.0,52,0.00,,,0.00,0000,Weather View 32 v70,2013-03-30 03:40:00,
2013-03-29 23:45:00,42.4,25.5,30.04,NW,315,0.0,5.0,51,0.00,,,0.00,0000,Weather View 32 v70,2013-03-30 03:45:00,
2013-03-29 23:55:00,42.2,27.1,30.04,NNW,338,0.0,4.0,55,0.00,,,0.00,0000,Weather View 32 v70,2013-03-30 03:55:00,